トンボー-テナグラ彗星

274P/Tombaugh-Tenagra (2022)

English version
Home page
Updated on October 14, 2023

---------------------------------------------------------------------

・ プロフィール

・ 写真集

・ 軌道要素

Epoch 2023 Feb. 25.0 TT = JDT 2460000.5
T 2022 Apr. 8.46739 TT                                  Rudenko
q   2.4529625            (2000.0)            P               Q
n   0.10762017     Peri.   38.47212     -0.47370024     -0.83846136
a   4.3773064      Node    81.32845     +0.72545074     -0.54494851
e   0.4396183      Incl.   15.81558     +0.49932885     -0.00369706
P   9.16
>From 879 observations 1931 Jan. 13-2023 Mar. 17, mean residual 0".7.

・ 光度変化

        m1 = 11.5 + 5 logΔ + 12.0 log r

---------------------------------------------------------------------

軌道要素はM.P.E.C. 2023-F81に掲載されたものです。
光度グラフはComet for Windowsで作成したものです。

---------------------------------------------------------------------

Copyright(C) Seiichi Yoshida (comet@aerith.net). All rights reserved.